Location: A�t Lahcen
(32.8243°N, 5.4246°W)
Time: 01:10:22
(UTC+00:00)

SL-24 R/B - Pass Details

Date: 27 January 2021
Orbit: 505 x 1002 km, 97.4° (Epoch: 26 February)

Event Time Altitude Azimuth Distance (km) Brightness Sun altitude
Rises 05:24:00 0° 168° (SSE) 2,696 7.6 -24.4°
Reaches altitude 10° 05:26:00 10° 169° (SSE) 1,853 6.7 -23.9°
Maximum altitude 05:30:00 87° 254° (WSW) 618 3.9 -23.1°
Enters shadow 05:31:04 51° 345° (NNW) 788 4.4 -22.9°
